GW2923 Weather Reports


Display with metric or nautical units.
time (UTC)temp
F
wind
direction
speed
MPH
gust
MPH
rain 1hr
in
rain 24hr
in
rain mn
in
humidity
%
barometer
mb
20260902215030 54 155 6.0 11.0 0.00 0.00 0.00 91 1003.6
20260902214542 54 146 5.0 11.0 0.00 0.00 0.00 90 1003.6
20260902214030 54 177 4.0 11.0 0.00 0.00 0.00 90 1003.6
20260902213530 54 202 4.0 12.0 0.00 0.00 0.00 90 1003.7
20260902213051 55 163 5.0 12.0 0.00 0.00 0.00 90 1003.7
20260902212530 55 153 3.0 9.0 0.00 0.00 0.00 90 1003.7
20260902212031 55 149 4.0 9.0 0.00 0.00 0.00 90 1003.8
20260902211544 55 187 4.0 10.0 0.00 0.00 0.00 90 1003.8
20260902211034 55 173 4.0 11.0 0.00 0.00 0.00 90 1003.8
20260902210534 55 160 4.0 14.0 0.00 0.00 0.00 90 1003.8
20260902210042 55 180 5.0 14.0 0.00 0.00 0.00 90 1003.8
20260902205529 55 166 3.0 11.0 0.00 0.00 0.00 89 1003.9
20260902205032 55 175 3.0 9.0 0.00 0.00 0.00 89 1003.9
20260902204550 55 209 4.0 9.0 0.00 0.00 0.00 89 1004.0
20260902204029 55 187 3.0 10.0 0.00 0.00 0.00 89 1004.0
20260902203531 55 182 3.0 10.0 0.00 0.00 0.00 89 1004.1
20260902203056 55 185 3.0 9.0 0.00 0.00 0.00 89 1004.3
20260902202530 55 204 3.0 10.0 0.00 0.00 0.00 88 1004.2
20260902202034 55 209 3.0 10.0 0.00 0.00 0.00 88 1004.2
20260902201549 55 192 4.0 10.0 0.00 0.00 0.00 88 1004.3
20260902201036 55 172 3.0 9.0 0.00 0.00 0.00 88 1004.2
20260902200531 55 177 3.0 8.0 0.00 0.00 0.00 88 1004.4
20260902200044 55 200 3.0 8.0 0.00 0.00 0.00 87 1004.3
20260902195531 55 197 3.0 9.0 0.00 0.00 0.00 87 1004.3
20260902195029 56 198 3.0 9.0 0.00 0.00 0.00 87 1004.4
20260902194600 56 168 2.0 7.0 0.00 0.00 0.00 87 1004.3
20260902194031 56 185 2.0 7.0 0.00 0.00 0.00 87 1004.4
20260902193531 56 214 2.0 7.0 0.00 0.00 0.00 87 1004.4
20260902193050 56 199 2.0 5.0 0.00 0.00 0.00 87 1004.5
20260902192531 56 180 2.0 9.0 0.00 0.00 0.00 86 1004.5
20260902192034 56 176 3.0 9.0 0.00 0.00 0.00 86 1004.5
20260902191558 57 212 2.0 9.0 0.00 0.00 0.00 85 1004.6
20260902191030 57 197 2.0 8.0 0.00 0.00 0.00 85 1004.6
20260902190536 57 198 2.0 6.0 0.00 0.00 0.00 85 1004.6
20260902190053 57 221 2.0 6.0 0.00 0.00 0.00 84 1004.7
20260902185530 57 213 3.0 6.0 0.00 0.00 0.00 84 1004.7
20260902185034 57 194 2.0 8.0 0.00 0.00 0.00 84 1004.6
20260902184605 57 0 1.0 11.0 0.00 0.00 0.00 84 1004.7
20260902184034 57 199 3.0 12.0 0.00 0.00 0.00 85 1004.8
20260902183536 57 232 4.0 12.0 0.00 0.00 0.00 85 1004.8
20260902183051 57 209 2.0 6.0 0.00 0.00 0.00 85 1004.8
20260902182530 57 236 2.0 6.0 0.00 0.00 0.00 85 1004.7
20260902182035 57 193 2.0 6.0 0.00 0.00 0.00 86 1004.8
20260902181606 57 222 2.0 9.0 0.00 0.00 0.00 86 1004.8
20260902181034 56 214 2.0 9.0 0.00 0.00 0.00 86 1004.9
20260902180531 56 209 1.0 9.0 0.00 0.00 0.00 86 1004.8
20260902180058 56 218 2.0 9.0 0.00 0.00 0.00 85 1004.8
20260902175533 57 174 3.0 7.0 0.00 0.00 0.00 84 1004.7
20260902175033 57 205 2.0 9.0 0.00 0.00 0.00 83 1004.8
20260902174549 57 232 3.0 9.0 0.00 0.00 0.00 83 1004.8
20260902174030 58 229 4.0 8.0 0.00 0.00 0.00 83 1004.9
20260902173531 58 203 1.0 6.0 0.00 0.00 0.00 83 1004.9
20260902173053 58 224 2.0 5.0 0.00 0.00 0.00 82 1004.9
20260902172531 59 207 2.0 8.0 0.00 0.00 0.00 82 1004.9
20260902172034 59 189 2.0 9.0 0.00 0.00 0.00 81 1005.1
20260902171614 59 226 4.0 12.0 0.00 0.00 0.00 81 1005.0
20260902171029 59 245 3.0 13.0 0.00 0.00 0.00 81 1005.1
20260902170530 59 195 5.0 13.0 0.00 0.00 0.00 81 1005.1
20260902170051 59 228 4.0 9.0 0.00 0.00 0.00 81 1005.2
20260902165530 59 222 2.0 7.0 0.00 0.00 0.00 81 1005.2
20260902165032 60 210 4.0 10.0 0.00 0.00 0.00 80 1005.2
20260902164545 60 147 4.0 12.0 0.00 0.00 0.00 80 1005.2
20260902164031 60 184 5.0 14.0 0.00 0.00 0.00 79 1005.2
20260902163530 60 224 5.0 14.0 0.00 0.00 0.00 80 1005.3
20260902163043 60 237 6.0 12.0 0.00 0.00 0.00 80 1005.3
20260902162529 60 235 5.0 15.0 0.00 0.00 0.00 81 1005.3
20260902162030 60 221 6.0 15.0 0.00 0.00 0.00 81 1005.3
20260902161553 60 257 5.0 12.0 0.00 0.00 0.00 81 1005.3
20260902161033 60 226 6.0 13.0 0.00 0.00 0.00 80 1005.3
20260902160531 61 253 6.0 13.0 0.00 0.00 0.00 80 1005.3
20260902160048 61 237 4.0 12.0 0.00 0.00 0.00 80 1005.3
20260902155531 62 216 6.0 14.0 0.00 0.00 0.00 80 1005.3
20260902155030 62 234 6.0 14.0 0.00 0.00 0.00 79 1005.3
20260902154543 62 167 7.0 14.0 0.00 0.00 0.00 79 1005.1
20260902154035 62 205 8.0 14.0 0.00 0.00 0.00 79 1005.2
20260902153533 63 227 5.0 13.0 0.00 0.00 0.00 79 1005.3
20260902153044 63 268 7.0 15.0 0.00 0.00 0.00 77 1005.2
20260902152533 64 228 8.0 17.0 0.00 0.00 0.00 75 1005.2
20260902152036 65 239 7.0 17.0 0.00 0.00 0.00 73 1005.1
20260902151545 65 216 8.0 16.0 0.00 0.00 0.00 73 1005.1
20260902151031 66 236 6.0 15.0 0.00 0.00 0.00 71 1005.1
20260902150530 66 225 6.0 13.0 0.00 0.00 0.00 71 1005.1
20260902150051 67 236 6.0 15.0 0.00 0.00 0.00 69 1005.0
20260902145532 67 245 7.0 15.0 0.00 0.00 0.00 68 1005.0
20260902145033 67 216 4.0 10.0 0.00 0.00 0.00 68 1005.0
20260902144551 67 204 5.0 10.0 0.00 0.00 0.00 68 1005.0
20260902144032 67 212 5.0 18.0 0.00 0.00 0.00 68 1005.1
20260902143531 66 207 4.0 18.0 0.00 0.00 0.00 69 1005.2
20260902143047 67 212 8.0 18.0 0.00 0.00 0.00 66 1005.1
20260902142531 67 224 6.0 13.0 0.00 0.00 0.00 65 1005.1
20260902142030 67 174 5.0 13.0 0.00 0.00 0.00 64 1005.0
20260902141547 67 286 7.0 12.0 0.00 0.00 0.00 64 1005.1
20260902141033 68 291 5.0 16.0 0.00 0.00 0.00 63 1005.1
20260902140531 68 234 7.0 16.0 0.00 0.00 0.00 63 1005.1
20260902140043 68 215 5.0 10.0 0.00 0.00 0.00 69 1005.1
20260902135533 66 230 1.0 4.0 0.00 0.00 0.00 72 1005.1
20260902135031 66 209 1.0 4.0 0.00 0.00 0.00 72 1005.2
20260902134545 66 186 1.0 7.0 0.00 0.00 0.00 70 1005.3
20260902134031 65 235 2.0 7.0 0.00 0.00 0.00 70 1005.4
20260902133535 65 229 3.0 7.0 0.00 0.00 0.00 69 1005.4
20260902133049 65 242 4.0 18.0 0.00 0.00 0.00 69 1005.4
20260902132533 66 224 6.0 18.0 0.00 0.00 0.00 67 1005.3
20260902132033 68 264 5.0 13.0 0.00 0.00 0.00 64 1005.4
20260902131545 69 226 5.0 13.0 0.00 0.00 0.00 63 1005.4
20260902131032 68 288 2.0 6.0 0.00 0.00 0.00 66 1005.4
20260902130530 67 180 0.0 5.0 0.00 0.00 0.00 71 1005.4
20260902130044 66 201 2.0 5.0 0.00 0.00 0.00 73 1005.5
20260902125532 66 180 1.0 4.0 0.00 0.00 0.00 72 1005.5
20260902125031 66 183 1.0 6.0 0.00 0.00 0.00 71 1005.4
20260902124550 65 216 1.0 10.0 0.00 0.00 0.00 72 1005.5
20260902124030 66 218 2.0 11.0 0.00 0.00 0.00 69 1005.7
20260902123533 67 219 6.0 11.0 0.00 0.00 0.00 66 1005.6
20260902123050 67 260 5.0 9.0 0.00 0.00 0.00 68 1005.7
20260902122530 68 245 5.0 9.0 0.00 0.00 0.00 64 1005.6
20260902122029 67 241 4.0 7.0 0.00 0.00 0.00 67 1005.6
20260902121544 65 234 1.0 10.0 0.00 0.00 0.00 71 1005.7
20260902121033 66 229 4.0 10.0 0.00 0.00 0.00 69 1005.7
20260902120530 66 264 5.0 10.0 0.00 0.00 0.00 68 1005.8
20260902120057 67 239 4.0 8.0 0.00 0.00 0.00 65 1005.7
20260902115533 68 241 3.0 8.0 0.00 0.00 0.00 68 1005.8
20260902115030 66 0 2.0 7.0 0.00 0.00 0.00 67 1005.8
20260902114550 65 226 2.0 7.0 0.00 0.00 0.00 69 1005.8
20260902114033 66 214 3.0 7.0 0.00 0.00 0.00 67 1005.9
20260902113534 67 215 2.0 8.0 0.00 0.00 0.00 69 1005.9
20260902113048 67 304 2.0 9.0 0.00 0.00 0.00 65 1005.9
20260902112530 67 232 3.0 9.0 0.00 0.00 0.00 66 1006.0
20260902112032 67 295 2.0 8.0 0.00 0.00 0.00 66 1006.1
20260902111549 67 234 4.0 8.0 0.00 0.00 0.00 67 1006.1
20260902111031 66 189 4.0 8.0 0.00 0.00 0.00 68 1006.1
20260902110533 66 284 2.0 8.0 0.00 0.00 0.00 65 1006.2
20260902110052 66 263 3.0 9.0 0.00 0.00 0.00 67 1006.2
20260902105531 66 194 4.0 9.0 0.00 0.00 0.00 68 1006.1
20260902105033 66 267 4.0 9.0 0.00 0.00 0.00 68 1006.2
20260902104550 66 251 4.0 9.0 0.00 0.00 0.00 69 1006.3
20260902104035 65 263 3.0 10.0 0.00 0.00 0.00 70 1006.2
20260902103530 65 309 2.0 11.0 0.00 0.00 0.00 67 1006.4
20260902103047 65 199 6.0 11.0 0.00 0.00 0.00 67 1006.4
20260902102530 64 255 3.0 9.0 0.00 0.00 0.00 69 1006.4
20260902102029 65 245 3.0 7.0 0.00 0.00 0.00 70 1006.4
20260902101541 65 272 2.0 9.0 0.00 0.00 0.00 69 1006.3
20260902101033 65 272 3.0 9.0 0.00 0.00 0.00 74 1006.4
20260902100531 64 232 1.0 9.0 0.00 0.00 0.00 73 1006.3
20260902100050 64 242 3.0 9.0 0.00 0.00 0.00 71 1006.3
20260902095531 63 282 2.0 9.0 0.00 0.00 0.00 74 1006.3
20260902095030 63 236 4.0 9.0 0.00 0.00 0.00 70 1006.3
20260902094555 63 200 0.0 7.0 0.00 0.00 0.00 74 1006.3
20260902094030 63 178 3.0 7.0 0.00 0.00 0.00 74 1006.2
20260902093533 63 284 2.0 7.0 0.00 0.00 0.00 71 1006.3
20260902093053 63 263 3.0 8.0 0.00 0.00 0.00 72 1006.3
20260902092530 63 250 3.0 8.0 0.00 0.00 0.00 73 1006.3
20260902092035 62 176 3.0 8.0 0.00 0.00 0.00 75 1006.4
20260902091552 62 0 3.0 7.0 0.00 0.00 0.00 75 1006.4
20260902091032 62 230 2.0 10.0 0.00 0.00 0.00 74 1006.4
20260902090530 62 241 4.0 10.0 0.00 0.00 0.00 74 1006.5
20260902090049 62 0 1.0 6.0 0.00 0.00 0.00 77 1006.3
20260902085531 62 309 2.0 7.0 0.00 0.00 0.00 78 1006.4
20260902085031 61 205 3.0 7.0 0.00 0.00 0.00 77 1006.4
20260902084544 61 172 2.0 6.0 0.00 0.00 0.00 77 1006.4
20260902084033 60 216 2.0 7.0 0.00 0.00 0.00 81 1006.4
20260902083531 60 0 3.0 7.0 0.00 0.00 0.00 81 1006.4
20260902083043 60 225 2.0 7.0 0.00 0.00 0.00 81 1006.4
20260902082531 60 220 3.0 7.0 0.00 0.00 0.00 83 1006.5
20260902082030 60 243 3.0 6.0 0.00 0.00 0.00 83 1006.5
20260902081555 60 176 2.0 5.0 0.00 0.00 0.00 87 1006.5
20260902081032 59 205 2.0 5.0 0.00 0.00 0.00 85 1006.4
20260902080533 58 222 2.0 5.0 0.00 0.00 0.00 88 1006.3
20260902080052 57 228 1.0 5.0 0.00 0.00 0.00 91 1006.4
20260902075533 56 218 3.0 5.0 0.00 0.00 0.00 90 1006.3
20260902075030 56 253 2.0 5.0 0.00 0.00 0.00 91 1006.3
20260902074606 56 240 2.0 6.0 0.00 0.00 0.00 91 1006.4
20260902074031 57 270 2.0 6.0 0.00 0.00 0.00 91 1006.4
20260902073532 57 271 2.0 6.0 0.00 0.00 0.00 93 1006.4
20260902073044 56 179 3.0 6.0 0.00 0.00 0.00 94 1006.4
20260902072529 56 227 2.0 5.0 0.00 0.00 0.00 95 1006.3
20260902072032 56 210 2.0 9.0 0.00 0.00 0.00 96 1006.3
20260902071554 55 246 4.0 9.0 0.00 0.00 0.00 96 1006.3
20260902071031 55 245 2.0 7.0 0.00 0.00 0.00 96 1006.3
20260902070534 55 218 3.0 7.0 0.00 0.00 0.00 96 1006.4
20260902070054 55 232 2.0 5.0 0.00 0.00 0.00 97 1006.2
20260902065529 55 272 3.0 5.0 0.00 0.00 0.00 97 1006.2
20260902065031 55 243 1.0 4.0 0.00 0.00 0.00 96 1006.2
20260902064550 55 228 2.0 4.0 0.00 0.00 0.00 97 1006.2
20260902064033 54 257 1.0 4.0 0.00 0.00 0.00 96 1006.1
20260902063532 55 229 1.0 5.0 0.00 0.00 0.00 97 1006.2
20260902063103 55 238 2.0 5.0 0.00 0.00 0.00 96 1006.1
20260902062532 54 206 2.0 5.0 0.00 0.00 0.00 96 1006.1
20260902062031 54 223 2.0 4.0 0.00 0.00 0.00 97 1006.2
20260902061545 54 196 1.0 4.0 0.00 0.00 0.00 97 1006.0
20260902061034 54 261 1.0 4.0 0.00 0.00 0.00 97 1006.1
20260902060530 54 188 1.0 3.0 0.00 0.00 0.00 96 1006.1
20260902060056 54 258 1.0 4.0 0.00 0.00 0.00 97 1006.1
20260902055531 53 245 1.0 4.0 0.00 0.00 0.00 97 1006.1
20260902055032 53 253 2.0 4.0 0.00 0.00 0.00 96 1006.1
20260902054545 53 238 1.0 4.0 0.00 0.00 0.00 96 1006.1
20260902054032 53 0 1.0 4.0 0.00 0.00 0.00 96 1006.0
20260902053534 52 248 1.0 4.0 0.00 0.00 0.00 96 1006.1
20260902053049 52 218 2.0 4.0 0.00 0.00 0.00 96 1005.9
20260902052531 52 207 2.0 4.0 0.00 0.00 0.00 96 1005.9
20260902052032 52 231 2.0 4.0 0.00 0.00 0.00 96 1006.0
20260902051550 52 218 2.0 4.0 0.00 0.00 0.00 96 1006.0
20260902051032 52 229 1.0 4.0 0.00 0.00 0.00 96 1006.0
20260902050531 52 232 1.0 4.0 0.00 0.00 0.00 96 1006.0
20260902050043 51 0 1.0 3.0 0.00 0.00 0.00 96 1006.1
20260902045531 51 221 0.0 3.0 0.00 0.00 0.00 96 1005.9
20260902045030 51 216 1.0 3.0 0.00 0.00 0.00 96 1006.0
20260902044553 51 219 1.0 4.0 0.00 0.00 0.00 96 1006.0
20260902044031 51 195 0.0 4.0 0.00 0.00 0.00 96 1006.0
20260902043530 51 220 1.0 2.0 0.00 0.00 0.00 96 1006.0
20260902043107 51 219 0.0 3.0 0.00 0.00 0.00 96 1006.0
20260902042530 51 0 0.0 3.0 0.00 0.00 0.00 96 1006.0
20260902042032 51 0 0.0 3.0 0.00 0.00 0.00 96 1005.9
20260902041602 51 0 0.0 3.0 0.00 0.00 0.00 96 1006.0
20260902041033 51 0 1.0 5.0 0.00 0.00 0.00 96 1006.1
20260902040532 51 0 1.0 5.0 0.00 0.00 0.00 96 1006.1
20260902040043 51 202 2.0 5.0 0.00 0.00 0.00 96 1006.1
20260902035535 51 224 1.0 5.0 0.00 0.00 0.00 96 1006.0
20260902035031 51 221 2.0 5.0 0.00 0.00 0.00 96 1006.0
20260902034603 51 240 1.0 5.0 0.00 0.00 0.00 96 1006.0
20260902034029 51 249 2.0 5.0 0.00 0.00 0.00 96 1006.0
20260902033532 51 225 2.0 5.0 0.00 0.00 0.00 96 1006.1
20260902033052 51 216 1.0 4.0 0.00 0.00 0.00 96 1006.1
20260902032532 51 236 0.0 3.0 0.00 0.00 0.00 96 1006.2
20260902032032 51 0 1.0 5.0 0.00 0.00 0.00 96 1006.2
20260902031549 50 234 1.0 5.0 0.00 0.00 0.00 96 1006.2
20260902031030 50 212 2.0 5.0 0.00 0.00 0.00 96 1006.2
20260902030532 50 232 1.0 5.0 0.00 0.00 0.00 96 1006.2
20260902030046 50 235 3.0 5.0 0.00 0.00 0.00 96 1006.1
20260902025533 49 231 1.0 6.0 0.00 0.00 0.00 96 1006.2
20260902025030 49 226 3.0 6.0 0.00 0.00 0.00 96 1006.1
20260902024553 48 235 1.0 5.0 0.00 0.00 0.00 96 1006.2
20260902024029 48 242 2.0 5.0 0.00 0.00 0.00 95 1006.2
20260902023530 48 257 1.0 5.0 0.00 0.00 0.00 95 1006.2
20260902023052 48 226 0.0 5.0 0.00 0.00 0.00 95 1006.1
20260902022531 48 0 1.0 5.0 0.00 0.00 0.00 96 1006.3
20260902022031 48 216 1.0 5.0 0.00 0.00 0.00 96 1006.2
20260902021552 48 196 1.0 5.0 0.00 0.00 0.00 96 1006.2
20260902021030 47 236 1.0 7.0 0.00 0.00 0.00 95 1006.3
20260902020533 47 224 2.0 7.0 0.00 0.00 0.00 96 1006.2
20260902020046 47 206 2.0 5.0 0.00 0.00 0.00 96 1006.3
20260902015533 47 239 1.0 5.0 0.00 0.00 0.00 95 1006.4
20260902015030 47 237 1.0 5.0 0.00 0.00 0.00 95 1006.4
20260902014551 46 230 2.0 5.0 0.00 0.00 0.00 95 1006.3
20260902014030 46 256 1.0 5.0 0.00 0.00 0.00 95 1006.4
20260902013530 46 216 1.0 5.0 0.00 0.00 0.00 95 1006.4
20260902013056 45 238 2.0 4.0 0.00 0.00 0.00 95 1006.4
20260902012538 45 249 2.0 4.0 0.00 0.00 0.00 95 1006.4
20260902012030 45 259 2.0 6.0 0.00 0.00 0.00 95 1006.4
20260902011552 45 259 1.0 6.0 0.00 0.00 0.00 95 1006.4
20260902011033 45 229 1.0 4.0 0.00 0.00 0.00 95 1006.5
20260902010531 45 234 1.0 4.0 0.00 0.00 0.00 95 1006.4
20260902010051 45 210 1.0 4.0 0.00 0.00 0.00 95 1006.5
20260902005530 45 228 1.0 5.0 0.00 0.00 0.00 95 1006.5
20260902005031 45 246 1.0 5.0 0.00 0.00 0.00 95 1006.6
20260902004544 45 236 2.0 5.0 0.00 0.00 0.00 95 1006.5
20260902004033 45 228 1.0 5.0 0.00 0.00 0.00 95 1006.5
20260902003529 45 224 1.0 5.0 0.00 0.00 0.00 94 1006.5
20260902003128 45 260 2.0 5.0 0.00 0.00 0.00 94 1006.6
20260902002531 45 232 2.0 4.0 0.00 0.00 0.00 94 1006.5
20260902002031 45 221 0.0 2.0 0.00 0.00 0.00 94 1006.6
20260902001551 45 0 0.0 0.0 0.00 0.00 0.00 94 1006.6
20260902001031 45 0 0.0 3.0 0.00 0.00 0.00 94 1006.6
20260902000532 45 0 0.0 3.0 0.00 0.00 0.00 94 1006.6
20260902000051 46 266 1.0 3.0 0.00 0.00 0.00 94 1006.5
20260901235530 46 236 1.0 4.0 0.00 0.00 0.00 94 1006.6
20260901235029 46 236 2.0 4.0 0.00 0.00 0.00 94 1006.6
20260901234554 46 232 2.0 4.0 0.00 0.00 0.00 94 1006.6
20260901234031 47 232 0.0 3.0 0.00 0.00 0.00 95 1006.7
20260901233534 47 0 0.0 3.0 0.00 0.00 0.00 95 1006.6
20260901233043 47 236 1.0 4.0 0.00 0.00 0.00 95 1006.7
20260901232530 47 235 2.0 4.0 0.00 0.00 0.00 95 1006.6
20260901232033 47 229 2.0 4.0 0.00 0.00 0.00 95 1006.7
20260901231600 47 247 1.0 4.0 0.00 0.00 0.00 95 1006.8
20260901231034 47 215 1.0 5.0 0.00 0.00 0.00 95 1006.8
20260901230532 47 250 1.0 5.0 0.00 0.00 0.00 95 1006.9
20260901230050 47 268 1.0 5.0 0.00 0.00 0.00 95 1006.9
20260901225532 46 259 0.0 4.0 0.00 0.00 0.00 95 1007.0
20260901225033 46 0 1.0 4.0 0.00 0.00 0.00 95 1007.0
20260901224550 46 224 0.0 4.0 0.00 0.00 0.00 94 1007.0
20260901224030 46 225 1.0 6.0 0.00 0.00 0.00 94 1007.0
20260901223533 46 239 1.0 6.0 0.00 0.00 0.00 94 1006.9
20260901223043 46 254 1.0 4.0 0.00 0.00 0.00 94 1007.0
20260901222537 46 0 0.0 4.0 0.00 0.00 0.00 94 1007.0
20260901222036 46 222 1.0 3.0 0.00 0.00 0.00 94 1007.0
20260901221601 46 236 0.0 4.0 0.00 0.00 0.00 94 1007.1
20260901221034 46 0 1.0 4.0 0.00 0.00 0.00 94 1007.1
20260901220530 46 0 0.0 4.0 0.00 0.00 0.00 94 1007.0
20260901220050 46 0 1.0 4.0 0.00 0.00 0.00 94 1007.0
20260901215530 46 0 0.0 3.0 0.00 0.00 0.00 94 1007.0